HLF6MU EDDH-EDDH

Flight info

Callsign HLF6MU
Flight time N/A
Altitude 30000
Route AMLUH2G/33 AMLUH M852 DENIX DCT RIMET/N0466F310 T157 KOKEB/N0449F230 T157 KERAX KERAX5A
Aircraft A306/H-SDE3FGHIRWY/LB1

Departure

Time 2026-04-25 18:39
Airport Hamburg Helmut Schmidt Airport (EDDH)

Arrival

Time N/A
Airport Hamburg Helmut Schmidt Airport (EDDH)
Time Latitude Longitude Altitude Speed Heading
2026-04-25 18:38 53.81593 9.55278 4997 ft 295 kts 184°
2026-04-25 18:39 53.79529 9.55319 5002 ft 296 kts 184°
2026-04-25 18:39 53.77469 9.55364 5009 ft 296 kts 184°
2026-04-25 18:39 53.75409 9.55416 5007 ft 296 kts 184°
2026-04-25 18:39 53.73351 9.55627 5006 ft 299 kts 172°
2026-04-25 18:40 53.71387 9.56836 5017 ft 302 kts 156°
2026-04-25 18:40 53.69510 9.58437 5017 ft 301 kts 154°
2026-04-25 18:40 53.67697 9.60030 5007 ft 286 kts 154°
2026-04-25 18:40 53.65984 9.61543 4997 ft 270 kts 154°
2026-04-25 18:41 53.64356 9.62986 5006 ft 262 kts 154°
2026-04-25 18:41 53.62746 9.64416 5019 ft 261 kts 154°
2026-04-25 18:41 53.61168 9.65815 5012 ft 257 kts 154°
2026-04-25 18:41 53.59592 9.67210 5043 ft 255 kts 154°
2026-04-25 18:42 53.58027 9.68593 5045 ft 253 kts 154°
2026-04-25 18:42 53.57501 9.69059 5037 ft 253 kts 154°
2026-04-25 18:42 53.54899 9.71363 5022 ft 255 kts 154°
2026-04-25 18:42 53.53330 9.72750 5021 ft 255 kts 154°
2026-04-25 18:43 53.51816 9.74290 5008 ft 255 kts 142°
2026-04-25 18:43 53.50491 9.76304 4684 ft 256 kts 135°
2026-04-25 18:43 53.49230 9.78391 4409 ft 253 kts 134°
2026-04-25 18:43 53.47994 9.80445 4078 ft 247 kts 134°
2026-04-25 18:44 53.46782 9.82470 3669 ft 245 kts 134°
2026-04-25 18:44 53.45632 9.84503 3412 ft 240 kts 124°
2026-04-25 18:44 53.44877 9.86990 3130 ft 234 kts 106°
2026-04-25 18:44 53.44347 9.89519 3026 ft 233 kts 104°
2026-04-25 18:45 53.43837 9.92050 3010 ft 225 kts 104°
2026-04-25 18:45 53.43339 9.94525 3017 ft 223 kts 104°
2026-04-25 18:45 53.43010 9.97034 3022 ft 218 kts 88°
2026-04-25 18:45 53.42947 9.99620 3031 ft 223 kts 84°
2026-04-25 18:46 53.42933 10.02213 3019 ft 226 kts 84°
2026-04-25 18:46 53.42930 10.04855 3022 ft 227 kts 84°
2026-04-25 18:46 53.42927 10.07507 3016 ft 227 kts 84°
2026-04-25 18:46 53.42933 10.10159 3012 ft 226 kts 79°
2026-04-25 18:47 53.43393 10.12546 3006 ft 209 kts 45°
2026-04-25 18:47 53.44464 10.13945 3017 ft 189 kts 13°
2026-04-25 18:47 53.45711 10.14549 2999 ft 184 kts
2026-04-25 18:47 53.46922 10.14354 2783 ft 174 kts 333°
2026-04-25 18:48 53.47977 10.13377 2831 ft 175 kts 326°
2026-04-25 18:48 53.48987 10.12270 3372 ft 170 kts 324°
2026-04-25 18:48 53.49894 10.11151 4654 ft 159 kts 322°
2026-04-25 18:48 53.50852 10.09968 4763 ft 176 kts 323°
2026-04-25 18:49 53.51840 10.08718 4355 ft 184 kts 322°
2026-04-25 18:49 53.52914 10.07351 4057 ft 200 kts 322°
2026-04-25 18:49 53.54038 10.05918 3998 ft 204 kts 322°
2026-04-25 18:49 53.55171 10.04474 3994 ft 205 kts 322°
2026-04-25 18:50 53.56307 10.03025 3990 ft 205 kts 322°
2026-04-25 18:50 53.57440 10.01579 3987 ft 202 kts 322°
2026-04-25 18:50 53.58494 10.00234 3980 ft 188 kts 322°
2026-04-25 18:50 53.59290 9.98639 3970 ft 181 kts 294°
2026-04-25 18:51 53.59308 9.96481 3990 ft 198 kts 259°
2026-04-25 18:51 53.59114 9.95753 4001 ft 206 kts 248°
2026-04-25 18:51 53.57471 9.92591 3995 ft 221 kts 234°
2026-04-25 18:51 53.56377 9.90772 4024 ft 222 kts 234°
2026-04-25 18:52 53.55279 9.88946 4019 ft 222 kts 234°
2026-04-25 18:52 53.54178 9.87118 4020 ft 222 kts 234°
2026-04-25 18:52 53.53078 9.85291 4017 ft 222 kts 234°
2026-04-25 18:52 53.51979 9.83467 4023 ft 222 kts 234°
2026-04-25 18:53 53.50880 9.81647 4014 ft 222 kts 232°
2026-04-25 18:53 53.49529 9.80276 4015 ft 238 kts 202°
2026-04-25 18:53 53.47868 9.80220 4024 ft 250 kts 169°
2026-04-25 18:53 53.46332 9.81577 4029 ft 253 kts 136°
2026-04-25 18:54 53.44943 9.86731 4023 ft 244 kts 95°
2026-04-25 18:54 53.44630 9.89541 4022 ft 245 kts 94°
2026-04-25 18:54 53.44330 9.92355 4022 ft 245 kts 94°
2026-04-25 18:55 53.44031 9.95178 4020 ft 246 kts 94°
2026-04-25 18:55 53.43861 9.97996 4007 ft 237 kts 75°
2026-04-25 18:55 53.44318 10.00553 4018 ft 225 kts 57°
2026-04-25 18:55 53.44992 10.02906 4026 ft 224 kts 54°
2026-04-25 18:56 53.45693 10.05248 4019 ft 224 kts 54°
2026-04-25 18:56 53.46394 10.07579 4015 ft 225 kts 54°
2026-04-25 18:56 53.47099 10.09926 4016 ft 225 kts 54°
2026-04-25 18:56 53.47797 10.12235 4014 ft 225 kts 54°
2026-04-25 18:57 53.48506 10.14580 4017 ft 225 kts 54°
2026-04-25 18:57 53.49219 10.16921 4013 ft 225 kts 54°
2026-04-25 18:57 53.49928 10.19267 4008 ft 225 kts 54°
2026-04-25 18:57 53.50165 10.20060 4006 ft 225 kts 54°
2026-04-25 18:58 53.51328 10.23953 4011 ft 225 kts 54°
2026-04-25 18:58 53.52744 10.28643 4010 ft 224 kts 54°
2026-04-25 18:58 53.53453 10.30980 4008 ft 224 kts 54°
2026-04-25 18:59 53.54165 10.33319 4006 ft 224 kts 54°
2026-04-25 19:00 53.54422 10.34163 4003 ft 224 kts 54°
2026-04-25 19:00 53.55204 10.36384 3996 ft 215 kts 37°
2026-04-25 19:01 53.57724 10.38134 3597 ft 197 kts
2026-04-25 19:01 53.59065 10.38595 3230 ft 201 kts
2026-04-25 19:01 53.60425 10.39058 3016 ft 195 kts
2026-04-25 19:01 53.61715 10.39509 2974 ft 187 kts
2026-04-25 19:02 53.64225 10.39905 2969 ft 175 kts 334°
2026-04-25 19:02 53.65103 10.38585 2973 ft 172 kts 302°
2026-04-25 19:02 53.65594 10.36738 2977 ft 174 kts 295°
2026-04-25 19:03 53.66299 10.33551 2980 ft 174 kts 294°
2026-04-25 19:03 53.66862 10.30974 2990 ft 175 kts 294°
2026-04-25 19:03 53.67227 10.29009 2978 ft 179 kts 282°
2026-04-25 19:04 53.66810 10.24776 2986 ft 187 kts 264°
2026-04-25 19:04 53.66489 10.22688 2982 ft 180 kts 264°
2026-04-25 19:05 53.65853 10.18652 2992 ft 178 kts 264°
2026-04-25 19:05 53.65234 10.14606 2988 ft 178 kts 264°
2026-04-25 19:05 53.64924 10.12584 2990 ft 178 kts 264°